Lapse_Rate
6.8 6.9 6.9 6.9 7.0 6.6 6.1 6.5 6.2 6.7 6.7 6.8 6.5 6.2 6.0 5.8 5.6 5.5 5.5 5.4 5.2 5.1 4.9 4.7 4.5 4.3 4.1 4.1 4.0 3.9 3.9 3.9 4.0 4.1 4.2 4.1 3.9 3.9 3.8 3.6 3.3 3.2 3.2 3.4
6.6 6.5 6.5 6.5 6.3 6.3 6.2 6.4 6.3 6.4 6.5 6.9 6.6 6.2 6.0 5.8 5.6 5.5 5.4 5.2 5.0 4.8 4.6 4.4 4.2 4.0 3.9 4.0 4.0 4.0 4.1 4.3 4.5 4.3 4.0 3.9 3.7 3.4 3.2 3.2 3.4 3.8 4.0 4.3
6.0 6.3 6.2 5.3 6.2 6.6 6.8 6.7 6.9 6.5 7.0 6.6 6.5 6.2 5.8 5.5 5.3 5.3 5.1 4.9 4.7 4.5 4.2 4.0 3.9 4.1 4.1 4.2 4.3 4.3 4.5 4.4 4.1 3.9 3.7 3.5 3.3 3.4 3.8 4.0 4.2 4.7 5.2 5.6
6.3 5.9 3.9 5.9 6.1 6.6 6.6 6.7 6.6 6.5 6.5 6.4 6.2 5.7 5.4 5.2 4.9 4.8 4.7 4.5 4.4 4.2 4.1 4.2 4.2 4.3 4.5 4.5 4.4 4.3 4.2 3.8 3.7 3.6 3.5 3.6 3.9 4.2 4.5 4.6 5.1 5.7 6.4 7.0
6.0 5.2 5.8 5.1 5.8 6.6 6.5 6.7 6.8 6.8 6.8 6.5 6.4 6.1 5.6 5.3 5.0 4.7 4.5 4.3 4.2 4.3 4.4 4.5 4.8 4.7 4.4 4.3 4.3 4.4 4.1 4.0 3.9 3.8 3.9 4.2 4.5 4.7 5.0 5.5 6.4 6.9 7.1 7.1
5.4 5.5 4.5 5.8 6.5 6.5 6.3 6.0 6.7 6.7 6.7 6.5 6.2 5.8 5.6 5.1 4.7 4.6 4.7 4.8 4.7 4.6 4.8 5.0 4.8 4.5 4.4 4.4 4.3 4.1 4.0 4.0 4.0 4.4 4.6 4.7 5.0 5.4 6.2 6.8 7.0 7.1 7.3 7.1
6.1 5.9 5.7 5.5 5.6 5.8 5.6 6.3 6.6 6.6 6.3 6.0 5.8 5.4 5.1 4.9 5.0 5.0 4.8 4.8 5.0 5.0 4.9 4.8 4.6 4.5 4.4 4.3 4.3 4.1 4.0 4.1 4.5 4.8 4.9 5.3 5.8 6.7 6.9 6.9 6.9 6.9 6.9 6.9
5.6 5.4 4.8 5.4 5.8 6.2 6.3 6.4 6.0 5.9 5.9 5.8 5.5 5.4 5.3 5.3 5.2 5.2 5.2 5.2 4.9 4.7 4.7 4.6 4.5 4.4 4.3 4.2 4.1 4.0 4.2 4.7 5.0 5.4 5.7 6.2 6.8 7.0 6.9 6.7 6.8 6.8 6.5 6.6
6.2 5.9 5.9 5.8 6.0 5.9 6.0 5.7 5.6 5.4 5.4 5.5 5.5 5.5 5.5 5.4 5.3 5.1 4.9 4.8 4.7 4.6 4.5 4.6 4.5 4.3 4.3 4.3 4.2 4.5 4.9 5.2 5.5 6.0 6.5 7.0 6.9 6.9 6.8 6.5 6.4 6.2 6.2 6.3
5.8 5.6 5.6 5.6 5.6 5.5 5.4 5.2 5.0 4.8 5.2 5.3 5.4 5.3 5.2 5.1 5.0 4.8 4.8 4.7 4.6 4.6 4.6 4.5 4.3 4.3 4.3 4.5 4.7 5.0 5.4 5.8 6.3 6.9 7.1 6.8 6.7 6.6 6.6 6.4 6.2 6.0 6.0 5.9
5.6 5.7 5.8 5.7 5.6 5.6 5.5 5.2 5.0 4.8 4.7 5.0 5.1 5.0 5.0 4.8 4.7 4.7 4.7 4.6 4.6 4.4 4.2 4.3 4.3 4.5 4.7 4.9 5.3 5.6 6.0 6.6 7.0 6.9 6.8 6.8 6.8 6.7 6.6 6.4 5.9 5.7 5.6 5.5
5.9 6.0 6.1 6.0 5.8 5.4 5.1 4.7 4.3 4.5 4.7 4.9 4.9 4.8 4.7 4.7 4.7 4.6 4.6 4.4 4.3 4.1 4.1 4.3 4.5 4.8 5.2 5.4 5.8 6.4 6.8 6.9 6.8 6.7 6.7 6.8 6.8 7.0 6.8 6.5 6.1 5.9 5.8 5.6
5.9 5.9 5.7 5.5 5.1 4.7 4.3 4.3 4.4 4.9 4.9 4.8 4.6 4.6 4.7 4.7 4.6 4.5 4.4 4.2 4.0 4.1 4.4 4.7 5.0 5.4 5.7 6.2 6.6 6.7 6.8 6.7 6.5 6.6 6.7 6.6 6.7 6.7 6.9 6.8 6.4 6.2 6.1 6.1
5.3 5.4 5.2 4.8 4.7 4.5 4.5 4.8 4.9 4.8 4.7 4.8 4.8 4.8 4.8 4.7 4.7 4.5 4.2 4.1 4.4 4.7 5.1 5.3 5.7 6.0 6.3 6.7 6.8 6.7 6.6 6.5 6.5 6.6 6.6 6.7 6.7 6.7 6.6 6.5 6.3 6.2 6.0 6.2
4.8 4.4 4.5 4.7 4.7 4.8 4.9 4.9 4.9 4.9 4.9 5.0 5.0 4.9 4.9 4.9 4.8 4.6 4.6 4.8 5.2 5.5 5.6 5.8 6.2 6.5 6.8 6.8 6.6 6.5 6.6 6.6 6.6 6.7 6.6 6.5 6.4 6.5 6.5 6.5 6.2 6.1 6.1 6.3
4.5 4.7 4.8 4.9 4.9 4.9 4.9 5.0 5.1 5.2 5.2 5.2 5.2 5.2 5.1 5.0 4.9 5.0 5.4 5.6 5.5 5.8 6.0 6.4 6.6 6.8 6.8 6.5 6.5 6.7 6.7 6.7 6.5 6.5 6.5 6.4 6.4 6.5 6.5 6.4 6.3 6.1 6.0 6.1
5.1 5.2 5.1 5.1 5.1 5.1 5.2 5.4 5.5 5.5 5.5 5.5 5.5 5.5 5.6 5.5 5.7 5.9 5.9 5.9 6.1 6.2 6.5 6.7 6.7 6.7 6.5 6.5 6.6 6.7 6.8 6.7 6.5 6.4 6.2 6.2 6.3 6.3 6.3 6.1 6.1 5.9 5.8 5.8
5.0 5.1 5.1 5.2 5.3 5.4 5.5 5.6 5.7 5.8 6.0 6.0 6.0 6.1 6.1 6.3 6.1 6.2 6.4 6.5 6.7 6.8 7.0 6.8 6.6 6.5 6.6 6.6 6.6 6.7 6.6 6.4 6.2 6.2 6.1 6.1 6.1 6.1 5.8 5.9 5.8 5.8 5.8 5.8
5.4 5.5 5.6 5.6 5.7 5.9 6.1 6.3 6.5 6.6 6.4 6.5 6.7 6.6 6.4 6.4 6.5 6.7 6.8 6.9 6.9 7.0 6.8 6.6 6.5 6.5 6.5 6.5 6.5 6.4 6.2 6.2 6.1 6.0 6.0 6.0 5.9 5.8 5.8 5.7 5.6 5.6 5.6 5.6
6.0 6.1 6.2 6.3 6.5 6.7 6.9 6.9 6.9 7.0 6.9 6.8 6.6 6.6 6.8 6.9 6.9 6.9 6.8 6.9 6.7 6.6 6.6 6.5 6.4 6.3 6.4 6.3 6.2 6.2 6.2 6.1 6.1 6.0 6.1 6.0 5.9 5.8 5.6 5.4 5.4 5.4 5.3 5.4
6.8 6.9 7.0 7.2 7.3 7.5 7.4 7.4 7.3 7.4 7.4 7.1 7.1 7.1 7.1 7.1 6.9 6.8 6.8 6.8 6.5 6.4 6.2 6.2 6.2 6.2 6.1 6.1 6.1 6.1 6.0 6.0 6.0 6.0 5.8 5.8 5.7 5.6 5.4 5.3 5.4 5.2 5.1 5.1
7.6 7.7 7.8 7.9 8.0 8.1 8.0 7.8 7.8 7.7 7.4 7.3 7.2 7.0 7.0 6.9 6.6 6.7 6.4 6.6 6.4 6.3 6.1 6.0 6.0 5.9 5.9 6.0 6.0 5.9 6.0 6.0 6.0 5.9 5.9 5.7 5.6 5.5 5.4 5.3 5.3 5.1 5.1 5.1
8.3 8.4 8.3 8.3 8.2 8.2 8.0 7.8 7.5 7.3 7.2 7.0 6.9 6.8 6.8 6.6 6.4 6.7 6.2 6.2 6.1 6.1 6.0 5.9 5.9 5.9 5.9 5.9 5.9 5.9 6.0 6.0 6.0 6.1 6.1 5.9 5.7 5.6 5.4 5.4 5.3 5.2 5.2 5.2
8.3 8.2 8.1 8.1 8.0 7.8 7.5 7.3 7.0 6.9 6.8 6.7 6.7 6.7 6.7 6.5 6.1 6.5 6.4 6.4 6.1 5.9 5.9 6.0 5.9 5.8 5.9 6.0 6.0 6.2 6.3 6.3 6.3 6.4 6.2 6.1 6.0 5.8 5.6 5.5 5.5 5.5 5.3 5.3
8.1 8.1 8.1 8.0 7.8 7.4 7.2 6.9 6.8 6.8 6.7 6.7 6.7 6.6 6.5 6.4 6.3 6.3 6.3 6.3 6.1 6.0 6.0 6.0 6.0 6.0 6.1 6.2 6.4 6.5 6.5 6.5 6.5 6.5 6.4 6.3 6.2 6.1 6.0 5.9 5.8 5.8 5.6 5.7
8.2 8.1 7.9 7.6 7.3 7.1 6.9 6.7 6.8 6.7 6.7 6.6 6.5 6.5 6.5 6.5 6.4 6.3 6.3 6.1 6.2 6.1 6.1 6.0 6.1 6.2 6.2 6.4 6.5 6.6 6.7 6.6 6.5 6.5 6.5 6.5 6.4 6.3 6.2 6.1 6.0 5.9 5.8 5.8
8.0 7.7 7.5 7.2 7.0 6.7 6.6 6.7 6.6 6.5 6.5 6.5 6.5 6.5 6.4 6.4 6.4 6.3 6.1 6.2 6.2 6.2 6.2 6.2 6.1 6.2 6.3 6.5 6.6 6.6 6.6 6.6 6.5 6.4 6.4 6.4 6.3 6.3 6.2 6.2 6.1 6.0 5.9 5.9
Wind_Speed
2 3 4 4 7 11 8 6 6 4 9 7 9 9 7 8 8 8 8 7 5 3 2 2 3 4 4 5 5 3 5 6 7 7 7 7 7 8 8 8 10 9 10 10
3 2 5 2 4 10 8 1 6 2 4 2 5 8 7 8 9 8 7 7 5 2 1 2 3 5 5 6 7 5 7 8 8 8 9 9 9 10 10 11 10 10 11 12
3 2 4 4 10 10 5 5 6 8 5 6 4 11 10 8 7 8 7 5 1 2 3 4 5 5 6 7 6 7 8 9 10 10 10 11 11 10 11 13 12 12 13 12
3 2 2 3 2 3 5 4 5 4 4 5 9 7 7 5 7 7 5 1 3 3 5 6 4 6 6 6 6 7 8 9 10 10 11 11 11 11 12 12 13 13 14 14
5 4 4 1 5 7 8 6 7 8 7 9 10 7 5 6 5 5 3 1 2 3 4 5 7 7 6 6 7 8 9 10 10 9 10 10 11 13 13 12 13 13 14 15
4 5 8 3 2 4 3 4 8 9 12 14 7 5 4 6 4 4 2 2 4 5 4 5 7 6 6 7 7 7 9 10 10 9 10 12 14 14 13 12 14 12 16 14
3 2 5 4 5 3 5 4 9 11 11 7 5 2 6 6 3 1 1 5 4 4 5 7 7 5 7 7 9 10 10 11 11 11 11 12 14 13 12 14 15 15 16 15
3 2 7 4 4 8 4 5 10 9 6 9 9 7 6 4 1 3 5 5 5 4 6 7 6 5 7 8 10 10 10 11 12 12 10 11 13 13 13 13 14 14 14 14
3 2 3 4 1 4 2 11 5 8 7 8 8 5 5 2 2 4 5 5 5 5 6 6 6 6 8 10 9 11 11 12 12 13 12 12 12 13 11 12 11 12 11 12
4 3 4 6 6 8 6 10 8 8 8 6 7 5 2 2 4 4 5 5 4 6 7 7 6 7 8 10 10 10 12 12 12 12 14 12 10 10 10 10 11 11 12 12
4 2 6 8 6 7 9 10 10 7 6 7 6 3 1 3 4 5 5 5 5 6 7 9 8 7 8 9 9 10 11 11 11 10 12 12 11 10 10 12 14 13 12 11
3 9 3 6 6 9 11 8 7 8 5 4 3 1 1 4 4 4 6 5 6 6 7 10 8 8 8 8 9 10 11 10 9 10 10 10 12 12 20 25 29 30 31 23
4 11 4 10 8 4 7 7 6 7 5 2 0 1 1 2 3 6 6 6 7 9 8 8 9 9 10 9 8 9 10 11 10 13 11 11 11 12 13 12 22 24 27 28
9 13 9 4 6 7 8 7 7 5 2 1 2 1 2 3 4 6 6 7 7 7 8 8 9 10 10 8 8 9 9 20 10 9 10 9 9 9 11 11 11 10 17 20
4 6 8 10 8 7 6 4 4 1 1 2 2 4 4 6 6 6 6 7 7 7 8 8 8 10 8 7 9 10 9 8 9 8 6 13 9 9 9 10 10 11 11 15
9 12 11 10 8 7 5 3 2 3 2 3 4 5 6 6 6 7 7 7 6 7 8 8 9 9 7 8 9 9 8 17 13 8 7 8 8 9 9 9 10 9 10 10
13 6 6 6 6 4 2 0 2 3 4 5 6 6 5 6 6 7 7 6 6 7 9 8 9 8 8 8 10 9 8 5 15 6 6 7 8 8 8 9 9 9 10 11
7 7 7 8 5 2 2 2 3 4 3 5 5 5 6 6 7 7 7 6 6 7 8 8 7 9 8 10 11 6 6 6 6 6 7 7 7 7 8 8 9 9 9 10
6 8 7 6 4 3 2 2 3 4 6 5 5 6 6 6 6 6 6 6 6 7 8 8 15 12 9 9 10 4 5 6 6 6 6 10 7 7 7 8 8 9 9 9
6 4 4 3 2 1 2 3 5 5 5 5 5 5 5 5 5 6 5 6 6 6 8 9 10 7 7 7 10 4 5 5 6 6 6 6 6 7 7 11 10 8 8 8
5 4 4 4 4 4 4 4 4 5 6 5 4 5 5 6 6 5 5 6 7 8 10 13 7 5 4 5 5 4 4 4 5 5 5 5 6 6 7 7 8 8 8 8
2 2 3 3 3 4 5 5 5 5 5 5 5 5 5 6 5 5 5 6 6 14 9 3 4 6 5 8 3 3 4 4 3 3 4 4 5 6 7 7 7 7 8 8
3 2 3 5 5 5 6 5 5 5 5 5 5 5 4 4 4 4 6 4 6 11 2 3 6 8 8 3 3 3 4 4 3 4 4 4 5 5 6 7 7 7 7 8
3 4 4 4 4 4 5 4 5 4 5 5 5 5 4 3 4 3 4 9 13 7 4 5 6 7 8 3 3 3 3 3 3 4 3 9 5 6 7 7 7 8 7 10
3 3 3 4 4 3 4 3 4 5 5 5 5 5 5 3 3 5 5 5 6 4 3 7 8 8 3 3 2 3 4 3 3 3 4 4 6 6 6 6 6 7 7 7
4 3 3 4 3 2 2 3 3 2 3 4 4 4 4 3 4 5 2 2 2 4 3 2 1 2 3 3 3 4 4 4 4 4 4 4 4 5 5 6 6 6 6 6
4 7 3 3 3 3 3 4 4 4 4 4 6 5 4 4 4 3 2 2 3 3 2 2 2 3 2 3 3 4 4 4 7 4 3 3 3 3 4 5 5 6 6 7
Wind_Direction
71 111 121 147 168 171 186 184 169 229 193 207 197 180 159 136 131 128 131 129 130 120 59 2 336 324 320 306 302 272 270 280 278 276 273 273 276 282 279 272 273 272 278 279
9 36 45 104 134 184 213 171 268 144 251 110 116 111 131 152 145 141 141 138 130 88 351 310 302 293 291 282 285 310 301 287 286 285 292 286 283 278 277 274 269 268 270 271
207 71 86 333 211 188 184 196 156 199 219 147 133 152 156 152 143 139 143 143 74 323 296 290 287 290 300 298 293 290 289 294 293 287 282 275 274 275 277 278 278 271 271 272
149 25 289 239 48 197 184 169 150 113 136 157 141 118 124 126 134 136 138 100 339 322 313 305 296 291 277 282 284 280 281 275 272 269 272 277 277 278 280 277 271 272 274 272
148 199 303 180 194 161 173 238 179 145 129 122 120 94 65 132 125 123 106 34 294 300 278 276 284 282 284 283 272 271 272 275 275 272 277 284 284 286 285 282 278 278 278 280
152 163 210 250 188 181 131 297 164 142 141 139 146 144 172 164 125 93 49 254 270 307 300 293 281 279 275 274 273 278 284 285 287 287 289 293 294 294 293 285 284 288 287 283
162 197 286 226 165 160 110 237 137 139 139 129 103 115 134 126 116 109 331 312 303 285 266 271 282 286 289 293 292 294 296 297 298 297 294 294 295 296 295 294 292 290 288 288
109 96 276 148 94 173 150 53 119 115 113 104 118 118 123 122 47 322 294 292 296 297 294 291 299 310 296 288 289 292 294 297 298 298 299 297 292 293 292 291 290 291 291 291
172 162 16 4 23 83 111 126 117 112 120 118 117 120 127 151 269 290 303 306 301 293 298 293 289 285 292 292 299 302 303 297 297 297 294 291 290 290 293 291 289 290 290 291
107 7 62 73 65 82 84 107 108 115 116 111 118 124 116 317 322 321 305 304 293 308 303 296 288 280 269 289 294 294 294 297 297 296 297 294 291 288 288 290 291 291 290 288
80 58 73 44 71 98 98 99 99 96 112 119 111 93 325 307 306 296 293 299 308 299 294 291 291 283 280 284 290 293 294 294 294 293 292 294 290 291 291 287 287 291 288 286
165 157 107 143 140 137 125 125 126 122 112 103 104 245 268 290 284 289 300 298 298 288 283 285 284 283 287 284 283 288 295 299 297 299 297 300 306 301 292 289 289 287 288 287
144 144 124 134 125 108 117 127 119 109 102 118 267 208 220 259 276 297 298 291 282 279 275 282 290 292 288 286 285 289 294 299 301 309 308 300 299 301 305 315 314 314 309 309
126 116 101 133 145 128 114 107 100 83 81 215 251 219 238 255 283 283 278 273 278 278 285 288 290 288 289 291 294 289 291 304 305 299 296 301 315 331 316 320 320 320 317 317
66 77 112 113 98 97 99 95 90 0 287 298 280 261 287 289 284 282 280 283 289 294 287 283 283 290 297 293 296 293 291 303 306 304 324 321 319 316 312 313 316 313 314 314
87 94 101 107 113 114 114 109 56 305 301 296 284 279 269 271 275 282 286 289 292 294 293 295 296 297 298 295 295 297 300 309 326 324 322 317 316 313 312 318 315 314 317 317
104 94 99 104 125 132 99 68 257 269 274 271 269 279 291 292 292 283 277 274 271 277 290 293 294 298 300 298 313 314 312 335 330 324 319 318 313 312 321 316 315 317 317 321
103 102 104 121 130 141 281 264 276 288 275 280 294 296 292 285 280 287 284 282 282 290 297 295 296 308 316 322 322 314 341 329 321 321 318 318 319 326 317 319 317 321 324 329
99 107 105 112 138 169 222 274 286 284 293 292 292 279 272 270 273 279 294 303 302 303 311 316 317 326 313 321 332 355 333 324 325 320 320 324 326 320 328 325 327 332 337 341
102 109 96 81 58 100 306 294 291 283 278 275 274 282 287 291 295 301 300 291 282 282 302 307 321 315 315 319 350 347 328 327 323 322 325 336 327 332 331 338 342 343 346 347
47 34 24 21 350 327 290 277 283 285 288 297 300 291 290 296 294 304 304 308 307 314 317 325 323 315 310 1 11 339 334 326 326 324 324 326 326 333 333 337 345 350 349 349
29 11 354 350 331 310 315 319 315 308 309 308 304 301 306 303 301 298 274 278 302 316 316 315 307 334 10 18 344 343 338 327 310 314 324 325 331 337 341 339 354 354 350 354
58 17 355 348 333 317 319 318 316 308 305 314 305 302 299 289 293 306 311 307 314 306 1 320 346 26 29 16 358 346 334 326 336 346 330 322 334 341 346 350 352 353 350 353
12 2 340 339 323 322 312 309 311 311 304 300 295 292 295 302 301 269 283 302 309 340 356 335 44 45 46 8 1 346 333 346 353 349 334 7 353 355 359 357 360 2 358 0
8 344 324 330 321 303 307 289 309 307 318 309 299 300 294 280 261 296 293 295 338 23 12 23 43 42 16 0 357 360 354 341 1 4 356 352 14 14 7 3 2 10 0 357
351 324 316 316 301 293 294 311 295 295 300 300 300 294 297 289 287 299 299 34 31 53 38 35 50 25 356 350 2 8 7 353 19 8 14 2 355 0 357 355 355 350 346 343
349 350 323 338 326 322 310 308 330 304 306 292 295 295 287 294 299 336 83 59 72 73 46 34 347 17 2 19 2 11 14 5 15 21 1 1 1 349 354 352 352 351 352 357